Location: Dead Woman Crossing
(43.5369°N, 106.3228°W)
Time: 11:14:50
(UTC+00:00)

FO-29 - Visible Passes

Search period start: 25 June 2022 00:00
Search period end: 05 July 2022 00:00
Orbit: 801 x 1320 km, 98.5° (Epoch: 24 June)

Date Brightness Start Highest point End Pass type
(mag) Time Alt. Az. Time Alt. Az. Time Alt. Az.
30 Jun 12.9 03:49:12 10° W 03:50:16 10° W 03:51:21 10° WNW visible
02 Jul 12.8 03:42:52 10° W 03:45:11 11° W 03:47:32 10° WNW visible
04 Jul 12.7 03:37:03 10° WSW 03:40:06 13° W 03:43:12 10° WNW visible
